Other Public Products
Issued by NWS Charleston, SC

Current Version | Previous Version | Graphics & Text | Print | Product List | Glossary On
Versions: 1 2 3 4 5 6 7 8 9 10 11 12 13 14 15 16 17 18 19 20 21 22 23 24 25 26 27 28 29 30 31 32 33 34 35 36 37 38 39 40 41 42 43 44 45 46 47 48 49 50
786
FPUS82 KCHS 240227
OPUCHS

TEST...KCHS/KSAV Gateway Observations...TEST
National Weather Service Charleston SC
1000 PM EDT MON OCT 23 2017

NOTE: "fair" indicates few or no clouds below 12,000 feet with no
significant weather and/or obstructions to visibility.

SCZ050-WAZ558-NCZ071-TXZ119-213-PAZ071-DCZ001-FLZ074-172-MI076-
NYZ176-178-MAZ016-IL014-TNZ027-NJZ106-GAZ044-MD014-240300-

...Gateway Observations for Charleston International...

CITY           SKY/WX    TMP DP  RH WIND       PRES   REMARKS
Chas Airport   PTCLDY    73  72  96 S9        29.89R
Seattle        PTCLDY    58  46  64 N8        30.62S
Charlotte      PTCLDY    62  61  96 SW8       29.83R
Dallas DFW     PTCLDY    71  47  42 N17       30.12R
Dallas Love    PTCLDY    72  46  39 N16       30.13R
Philladelphia  CLOUDY    70  65  84 SE10      29.98F
Wash National  CLOUDY    73  66  78 SE16G25   29.85F
Baltimore      CLOUDY    71  65  81 SE14G21   29.88F
Miami          CLOUDY    82  75  79 SE10      29.98S
Detroit        LGT RAIN  57  54  89 S23G36    29.46S
Newark         CLOUDY    69  65  86 SE12G20   30.04F
Laguardia      CLOUDY    71  64  78 SE16G25   30.04F
J F K          CLOUDY    68  66  93 SE18G28   30.06F
Boston Logan   CLOUDY    61  59  93 E3        30.18S
Ft. Lauderdale CLOUDY    82  76  81 SE14      29.97S
Chicago O`Hare CLOUDY    52  45  77 SW6       29.64F
Chicago Midway CLOUDY    52  47  83 SW8       29.64F
Houston Bush   PTCLDY    60  54  80 CALM      30.07S
Houston Hobby  CLEAR     65  51  60 S6        30.07S
Nashville      CLEAR     54  48  80 SW8       29.93R
Atlanta        MOCLDY    59  54  83 W13       29.95R

$$

GAZ044-118-TXZ119-213-NCZ071-DCZ001-MDZ014-506-PAZ021-071-NJZ106-
NYZ176-178-MAZ106-OHZ011-021-055-MIZ076-KYZ091-ILZ014-INZ047-
MNZ060-ONZ431-240300-

...Gateway Observations for Savannah International...

CITY           SKY/WX    TMP DP  RH WIND       PRES   REMARKS
Savannah Arpt  MOCLDY    72  70  93 NW7       29.92R
Atlanta        MOCLDY    59  54  83 W13       29.95R
Charlotte      PTCLDY    62  61  96 SW8       29.83R
Dallas DFW     PTCLDY    71  47  42 N17       30.12R
Houston Bush   PTCLDY    60  54  80 CALM      30.07S
Wash National  CLOUDY    73  66  78 SE16G25   29.85F
Wash Dulles    CLOUDY    71  66  84 SE13G24   29.83F
Baltimore      CLOUDY    71  65  81 SE14G21   29.88F
Philadelphia   CLOUDY    70  65  84 SE10      29.98F
Newark         CLOUDY    69  65  86 SE12G20   30.04F
Laguardia      CLOUDY    71  64  78 SE16G25   30.04F
J F K          CLOUDY    68  66  93 SE18G28   30.06F
Boston         CLOUDY    61  59  93 E3        30.18S
Pittsburg      CLOUDY    56  55  97 SE9       29.69F
Akron          CLOUDY    57  53  86 S17       29.64F
Cleveland      CLOUDY    60  54  80 S16G26    29.60F
Cincinnati     LGT RAIN  51  51 100 W14       29.73R
Columbus       CLOUDY    56  56  98 SW14G22   29.65R
Detroit        LGT RAIN  57  54  89 S23G36    29.46S
Chicago O`Hare CLOUDY    52  45  77 SW6       29.64F
Minneapolis    CLOUDY    49  29  46 N22G30    29.85F
Indianapolis   CLOUDY    49  47  93 SW13      29.74R
Toronto Canada LGT RAIN  63  55  77 SE12      29.62F

$$




USA.gov is the U.S. government's official web portal to all federal, state and local government web resources and services.